Dewpoint
65 66 66 66 66 67 67 67 67 67 69 69 70 70 69 69 69 70 70 69 69 69 70 69 70 70 66 68 70 71 70 70 65 64 67 68 71 71 71 71 71 71 68
65 66 66 66 66 66 67 67 68 68 69 69 69 69 69 69 69 69 69 68 69 69 69 70 69 69 69 69 69 69 69 69 67 65 68 65 69 71 71 71 69 69 68
66 66 66 66 66 66 67 68 68 69 69 70 70 70 70 70 70 70 70 69 70 70 69 69 69 68 68 66 69 68 70 69 69 67 67 67 70 70 70 69 68 68 67
66 65 67 66 67 67 68 68 68 69 69 70 70 70 71 70 70 70 69 70 70 70 70 70 69 69 69 69 69 68 69 69 69 68 64 66 70 70 70 66 64 66 65
66 65 66 67 68 68 69 70 70 70 70 70 70 70 70 69 67 65 67 67 68 69 69 70 70 70 70 70 69 68 69 68 68 66 66 67 67 69 68 67 65 64 64
67 66 67 69 69 68 67 70 71 71 71 71 70 69 68 67 66 65 66 65 65 66 66 67 68 70 70 69 68 68 69 69 68 66 64 65 66 68 69 67 64 62 59
68 68 70 70 70 70 71 71 71 71 70 70 69 68 67 67 62 60 61 65 67 67 66 65 65 64 68 69 69 68 67 68 68 69 67 66 66 68 70 69 65 65 64
68 69 70 71 69 68 69 67 65 64 63 61 60 57 56 56 53 53 53 55 57 62 67 68 67 66 67 68 69 69 69 70 69 68 68 69 69 71 71 70 69 67 66
69 69 69 67 65 64 61 59 56 56 54 54 54 54 54 54 53 52 53 53 53 55 58 62 67 68 69 69 69 68 68 69 68 70 69 68 69 70 71 70 68 63 61
66 66 65 63 60 58 56 53 53 53 52 52 53 54 53 54 53 52 52 53 53 53 54 55 57 60 65 67 69 69 69 68 68 69 69 67 66 68 68 70 68 64 61
56 57 58 56 55 53 53 53 53 53 54 54 54 54 54 54 54 53 52 53 53 53 53 54 54 56 60 63 66 69 69 69 69 68 68 66 65 64 63 64 67 66 61
54 54 53 53 51 52 53 54 54 54 54 53 53 52 51 53 53 53 53 53 53 52 52 53 54 56 58 58 60 65 66 68 69 67 63 61 60 58 57 57 58 58 59
53 53 52 52 52 53 53 53 51 53 51 51 51 51 51 51 52 53 53 52 52 51 52 53 53 55 55 57 58 60 62 64 65 62 60 58 57 56 56 56 56 55 55
52 52 53 52 53 53 51 51 51 51 51 51 51 51 51 52 52 53 51 51 51 50 51 53 53 54 55 57 60 61 62 64 63 61 57 56 56 55 55 56 54 53 52
52 51 51 51 52 52 52 52 52 53 52 52 51 52 52 51 51 49 48 50 49 50 50 52 56 55 56 58 59 61 62 61 57 55 55 54 54 54 54 54 53 52 50
50 50 50 51 51 51 51 51 50 50 50 49 47 47 51 50 49 49 50 51 52 52 52 57 58 58 58 59 60 60 59 57 56 55 54 54 53 53 52 53 52 51 50
50 50 50 50 50 50 50 50 49 49 49 49 48 48 48 48 50 50 51 52 53 55 54 54 54 55 57 57 57 57 55 56 56 54 54 53 52 52 51 51 50 48 47
51 50 50 50 49 49 49 49 48 47 47 49 50 49 50 49 51 51 52 54 53 53 53 53 53 54 54 54 55 54 54 54 54 54 53 53 52 51 50 51 51 48 47
51 50 50 50 50 49 49 48 48 48 47 47 47 47 49 50 51 52 53 53 52 53 53 52 52 53 53 54 54 54 54 54 54 54 53 53 52 52 52 52 50 47 46
51 51 51 50 50 50 49 48 48 48 48 47 45 45 46 46 49 51 52 52 52 53 53 53 53 53 53 53 53 53 53 52 52 52 52 52 52 52 51 50 48 45 43
50 51 50 50 50 49 49 49 48 46 46 46 46 47 45 46 45 46 50 50 49 50 52 53 54 53 52 52 52 51 51 51 50 49 48 48 49 48 46 44 42 42 43
51 51 50 50 50 50 49 49 50 50 47 45 45 46 47 46 43 45 46 47 47 49 49 49 49 51 52 51 50 49 48 48 48 48 48 48 48 45 44 43 44 44 44
52 51 52 52 51 51 51 51 50 50 48 46 44 44 44 44 44 43 45 46 47 48 48 47 45 45 48 48 49 49 48 49 50 49 48 47 46 44 44 44 44 44 44
54 53 54 54 54 53 53 53 51 51 48 47 47 46 43 43 42 43 44 45 47 47 47 46 45 43 47 47 48 47 45 45 47 48 47 45 45 46 45 45 44 44 43
57 56 56 56 55 54 55 55 52 50 49 49 48 48 48 46 42 42 41 43 45 46 47 46 45 45 46 47 45 46 47 48 48 47 48 46 44 46 44 43 44 43 42
60 58 58 57 56 56 56 55 53 50 49 49 50 51 51 50 47 42 43 42 42 43 45 46 45 45 46 45 47 46 44 44 46 46 46 46 45 44 43 42 43 42 42
Wind_Speed
24 23 22 21 21 20 20 19 17 15 13 13 12 11 11 11 11 12 13 13 13 14 13 15 16 14 12 11 10 10 11 10 13 12 8 5 4 6 4 3 6 6 7
22 21 22 19 19 20 20 18 17 16 15 15 14 14 13 13 13 13 14 14 14 14 15 14 16 13 14 13 12 13 12 11 11 16 12 11 8 3 4 5 5 6 8
23 23 22 22 19 19 19 17 16 16 17 16 16 15 14 15 15 14 13 14 15 16 16 16 16 17 16 16 15 13 13 12 12 13 15 11 5 4 3 4 5 6 7
23 23 20 21 19 15 13 13 15 16 18 17 18 18 17 15 12 11 12 14 16 16 16 16 17 18 18 17 15 15 14 13 12 13 15 13 9 6 6 7 6 3 8
24 22 20 15 17 17 15 13 15 16 18 16 14 13 13 13 12 14 14 16 15 16 16 17 18 19 19 19 15 15 15 15 15 15 15 13 13 7 10 8 9 10 6
22 22 14 15 17 19 12 13 13 15 14 11 10 10 11 11 9 10 14 14 17 18 19 20 19 18 20 25 26 26 20 18 19 18 18 18 18 15 11 12 11 9 6
20 18 18 19 18 17 14 12 12 10 7 5 4 4 6 5 9 9 10 13 18 21 21 20 20 20 19 21 20 26 27 28 27 19 20 20 19 17 15 14 15 14 11
15 15 18 19 14 11 13 13 10 6 4 3 2 3 4 3 6 10 12 13 16 19 19 23 24 23 22 21 21 21 20 19 20 23 25 24 20 16 18 17 18 14 8
20 19 18 17 17 14 12 10 7 6 5 5 4 5 5 4 5 8 11 12 16 19 20 22 22 21 23 22 24 24 22 21 15 21 22 11 11 13 14 11 13 17 6
11 13 15 15 15 12 12 9 6 9 8 5 3 4 4 9 8 11 12 12 15 17 19 22 23 27 24 21 23 24 22 20 17 13 8 9 8 7 13 15 15 18 9
14 8 11 20 15 14 13 10 9 8 6 4 4 6 8 9 12 12 12 13 14 18 18 19 20 18 22 27 27 22 22 18 14 11 7 6 7 6 5 3 7 14 13
20 11 7 15 12 12 13 11 9 5 6 8 11 9 9 12 11 15 20 20 22 20 21 19 20 19 18 16 18 25 24 12 8 8 11 12 14 7 4 7 9 8 7
21 11 8 10 12 10 10 10 7 7 9 10 10 11 13 15 15 18 19 21 25 21 19 20 21 20 20 18 19 18 17 14 13 14 13 10 9 12 19 18 15 19 19
22 15 11 13 13 10 9 7 8 9 9 9 10 13 15 17 18 18 17 19 21 17 15 16 19 19 18 17 12 10 12 15 15 14 13 13 13 14 13 12 18 16 19
22 17 14 13 13 12 9 9 9 7 7 8 9 10 16 17 19 22 20 20 18 13 10 9 12 11 12 12 11 9 14 17 18 17 18 17 16 15 15 12 12 13 18
22 19 17 16 14 13 12 10 2 3 4 3 6 5 11 12 23 23 20 21 18 4 0 5 4 7 8 8 11 11 16 17 18 19 19 18 19 18 17 14 15 17 20
22 21 18 17 14 14 12 11 11 5 3 5 11 13 15 15 22 24 22 18 25 17 16 15 13 12 9 11 12 16 16 15 19 20 20 19 19 18 19 16 15 16 13
16 17 16 15 15 14 12 10 9 9 9 10 11 13 17 16 21 23 21 17 20 21 18 18 17 15 15 14 13 18 18 18 19 20 22 19 18 18 16 14 9 8 11
19 16 14 14 13 13 11 9 8 7 8 8 8 10 13 12 16 21 19 18 18 18 17 18 17 18 17 18 18 17 17 18 19 21 20 18 16 15 12 9 8 11 16
16 15 14 13 13 12 11 9 7 6 5 6 6 8 9 10 14 16 18 20 20 17 15 16 17 16 15 15 17 19 18 18 18 18 18 16 12 12 14 12 12 13 11
17 17 13 12 11 10 9 8 7 5 3 2 2 3 4 6 8 11 12 13 14 15 16 17 16 16 15 14 15 17 16 16 16 18 18 17 14 13 12 11 12 8 9
17 16 14 12 11 10 8 7 6 5 4 3 2 2 1 3 3 5 6 8 9 9 10 11 12 12 11 12 13 15 15 15 13 12 11 10 9 9 10 11 9 10 12
15 16 14 12 11 10 10 8 7 6 6 5 3 3 3 1 1 0 1 2 3 4 5 4 5 5 5 4 5 6 8 7 8 8 9 9 9 10 10 11 12 12 13
15 15 14 12 11 10 10 9 9 8 6 6 6 4 3 4 4 4 4 4 3 2 1 1 0 1 3 4 4 5 5 6 7 9 9 9 8 8 9 10 11 12 13
15 15 14 13 12 12 9 9 9 9 9 9 7 6 7 7 7 7 7 6 6 5 5 4 4 4 4 5 6 6 5 8 7 6 9 8 9 10 10 10 12 12 13
16 17 15 12 13 12 11 11 11 11 11 10 9 9 10 10 10 9 9 9 8 8 8 7 6 6 6 6 6 4 5 4 4 4 6 8 9 10 10 11 15 13 14
Wind_Direction
203 206 208 207 210 217 223 225 222 227 226 231 230 228 231 230 227 228 238 253 250 254 258 247 244 237 252 250 242 247 244 240 251 262 271 281 262 241 203 183 160 141 136
200 203 210 210 210 218 224 225 225 226 228 229 229 226 232 239 243 242 247 253 247 252 256 257 251 253 246 245 248 247 242 235 251 269 274 274 274 253 210 184 170 149 158
193 198 205 210 208 218 226 229 230 232 232 229 229 232 230 233 238 244 251 257 256 254 255 254 250 250 249 252 243 252 246 241 236 257 271 268 263 200 159 123 136 144 132
193 205 203 207 209 211 229 233 231 234 238 235 233 237 239 240 234 243 251 256 260 260 258 254 252 250 247 251 247 249 252 252 252 249 263 264 247 203 187 175 169 149 148
196 203 204 195 198 195 211 227 235 233 239 238 240 241 243 241 245 254 254 252 253 259 259 257 251 247 245 242 245 250 240 251 255 254 258 253 248 205 211 175 183 165 160
195 206 191 187 202 217 201 223 228 235 238 236 235 240 244 258 281 266 258 263 264 261 262 259 257 257 251 248 243 243 242 240 245 244 251 248 253 241 222 182 156 160 190
191 187 179 178 201 209 210 206 207 201 200 210 224 257 274 297 25 5 339 285 268 259 257 258 256 256 250 253 248 243 244 239 238 245 248 247 248 237 224 193 188 193 199
179 188 174 172 167 169 166 170 155 146 126 113 72 354 319 308 15 332 312 282 267 263 261 258 254 257 254 252 252 250 242 237 232 236 241 249 249 242 220 218 213 195 128
165 181 165 163 154 164 147 124 110 124 95 62 31 358 341 333 5 335 318 294 277 271 265 261 259 254 250 243 246 252 252 245 225 226 240 257 259 231 216 205 180 169 163
157 159 145 143 138 135 115 112 121 91 78 59 9 341 334 341 346 329 328 316 297 286 279 268 258 255 258 248 235 237 244 243 238 238 243 239 243 240 210 204 191 192 156
59 42 120 116 121 111 105 101 89 88 89 66 21 9 357 337 325 326 311 312 293 290 280 275 268 260 251 243 237 244 244 256 245 231 214 154 112 96 103 105 167 178 176
88 56 12 85 99 106 105 92 80 90 68 41 23 6 354 342 337 322 308 295 291 278 269 267 263 263 278 272 249 237 241 239 196 175 154 149 143 129 98 64 94 69 52
109 122 209 115 111 117 117 106 109 81 57 40 21 355 346 339 331 324 312 306 299 285 267 258 258 255 247 263 264 251 224 207 180 170 165 166 156 140 132 118 93 91 76
138 164 169 148 126 113 107 117 91 75 62 42 17 359 345 340 336 333 325 317 308 294 272 261 252 248 249 252 254 246 192 174 167 156 132 120 120 126 115 117 117 107 99
147 159 156 137 133 134 118 100 95 82 64 50 15 351 347 341 339 331 326 324 315 289 279 279 256 230 223 224 221 190 145 132 127 127 127 126 121 112 105 112 112 105 109
151 157 156 150 148 134 121 118 121 133 167 243 296 326 351 344 350 350 348 349 357 347 249 310 261 220 192 166 138 132 125 125 131 130 126 125 121 121 123 113 112 118 125
157 157 158 153 145 137 138 135 121 131 212 42 35 27 18 7 11 9 7 8 29 36 47 39 43 56 73 108 119 117 116 122 122 122 122 123 121 121 126 126 128 133 135
156 153 155 150 151 144 138 126 109 94 74 55 38 27 21 17 25 21 21 28 37 39 45 46 45 51 66 77 86 102 106 109 115 116 117 120 127 132 134 137 137 135 130
157 163 164 158 153 141 138 135 122 102 83 60 44 41 20 11 35 31 34 40 41 42 47 52 57 61 60 76 80 84 97 107 113 116 121 127 135 138 138 143 139 150 152
163 166 165 158 154 154 158 155 139 108 87 69 50 34 13 27 34 41 41 49 47 44 51 59 56 52 67 77 93 106 109 107 113 122 130 137 136 140 143 158 162 160 155
163 167 170 164 168 170 168 157 142 134 137 106 69 56 359 14 37 44 51 52 50 57 60 63 70 82 80 74 86 99 99 103 117 128 137 144 153 156 155 156 162 151 139
165 168 179 179 172 180 184 176 167 170 163 181 168 124 240 284 31 53 58 62 62 61 65 65 75 82 90 102 108 118 122 124 132 140 149 155 168 174 164 151 138 136 141
168 174 183 185 185 182 187 191 194 194 196 197 189 203 217 291 280 258 93 91 72 62 63 65 89 106 119 136 142 149 154 162 170 167 165 176 181 177 168 159 158 159 160
170 188 189 192 192 191 197 196 201 208 205 197 203 211 229 237 235 216 221 200 188 175 174 197 215 149 156 182 183 195 194 182 175 179 186 176 169 164 168 168 168 162 158
179 181 182 194 193 204 205 212 206 208 211 216 217 220 229 233 232 226 219 213 208 214 210 210 215 210 214 216 213 198 146 170 202 177 191 186 184 177 173 168 159 158 158
189 191 195 187 200 210 211 212 212 214 220 224 228 231 231 229 230 228 221 219 217 220 226 221 222 217 209 210 211 176 164 179 185 216 202 196 183 180 173 168 169 167 167